Home > Weather > Gomel > Past weeks

Flag for Belarus Weather for the Past 2 Weeks in Gomel, Belarus

Now
37 °F

Overcast.


Feels Like: 27 °F
Forecast: 34 / 38 °F
Wind: 22 mph from Southeast

Location: Gomel'

Current Time: Feb 10, 2016 at 4:58:59 PM

Latest Report: Feb 10, 2016 at 4:30 PM


Visibility: N/A

Pressure: 29.77 "Hg

Humidity: 81%

Dew point: 32 °F

Location of GomelLocation

Historic Weather in Gomel — Graph

°F

Gomel Temperature Yesterday

Maximum temperature yesterday: 36 °F (at 10:30 AM)
Minimum temperature yesterday: 32 °F (at 12:00 AM)
Average temperature yesterday: 35 °F

High & Low Weather Summary for the Past Weeks

 TemperatureHumidityPressure
High48 °F (Jan 30, 12:30 AM)100% (Jan 27, 1:00 AM)30.27 "Hg (Jan 27, 1:00 AM)
Low21 °F (Jan 26, 6:00 PM)46% (Jan 30, 12:30 AM)29.45 "Hg (Jan 31, 5:00 PM)
Average35 °F84%29.90 "Hg
* Reported Jan 26 3:00 PM — Feb 10 3:30 PM, Gomel, Weather by CustomWeather, © 2016

Note: Actual official high and low records may vary slightly from our data, if they occured in-between our weather recording intervals... More about our weather records

Advertising

Gomel Weather History for the Previous 24 Hours

 ConditionsComfort  
Time TempWeatherWind HumidityBarometerVisibility
3:30 PM
Wed, Feb 10
37 °FOvercast.26 mph81%29.77 "HgN/A
3:00 PM37 °FOvercast.22 mph81%29.77 "HgN/A
2:30 PM37 °FOvercast.22 mph81%29.80 "HgN/A
2:00 PM37 °FOvercast.20 mph81%29.80 "HgN/A
1:30 PM37 °FOvercast.20 mph87%29.80 "HgN/A
1:00 PM37 °FOvercast.22 mph87%29.80 "HgN/A
12:30 PM36 °FOvercast.20 mph93%29.80 "HgN/A
12:00 PM36 °FOvercast.20 mph93%29.83 "HgN/A
11:30 AM36 °FLow clouds.20 mph93%29.83 "Hg6 mi
11:00 AM36 °FLow clouds.20 mph93%29.83 "Hg5 mi
10:30 AM36 °FLow clouds.20 mph93%29.83 "Hg4 mi
10:00 AM36 °FLow clouds.20 mph93%29.83 "Hg4 mi
9:30 AM36 °FFog.20 mph93%29.83 "Hg3 mi
9:00 AM36 °FFog.20 mph93%29.83 "Hg3 mi
8:30 AM34 °FFog.15 mph100%29.83 "Hg3 mi
8:00 AM34 °FFog.17 mph100%29.83 "Hg3 mi
7:30 AM36 °FFog.17 mph93%29.83 "Hg2 mi
7:00 AM36 °FFog.17 mph93%29.83 "Hg3 mi
6:30 AM36 °FFog.15 mph93%29.83 "Hg3 mi
6:00 AM36 °FFog.13 mph93%29.86 "Hg3 mi
5:00 AM36 °FLow clouds.10 mph93%29.86 "Hg4 mi
4:00 AM36 °FLow clouds.15 mph93%29.86 "Hg5 mi
3:00 AM36 °FLow clouds.10 mph93%29.86 "Hg6 mi
2:00 AM36 °FOvercast.10 mph93%29.86 "Hg6 mi
1:30 AM36 °FOvercast.10 mph93%29.86 "Hg6 mi
12:30 AM36 °FLow clouds.13 mph93%29.86 "Hg6 mi
12:00 AM36 °FLow clouds.13 mph93%29.86 "Hg6 mi
11:00 PM
Tue, Feb 9
36 °FLow clouds.13 mph93%29.86 "Hg5 mi
10:00 PM36 °FLow clouds.15 mph93%29.86 "Hg4 mi
9:00 PM36 °FLow clouds.17 mph93%29.86 "Hg4 mi
8:00 PM36 °FLow clouds.17 mph93%29.86 "Hg4 mi
7:30 PM36 °FLow clouds.15 mph87%29.86 "Hg5 mi
7:00 PM36 °FLow clouds.15 mph87%29.86 "Hg5 mi
6:30 PM36 °FLow clouds.17 mph87%29.86 "HgN/A
6:00 PM36 °FLow clouds.17 mph87%29.86 "Hg5 mi
5:30 PM36 °FLow clouds.17 mph87%29.86 "HgN/A
5:00 PM36 °FSprinkles. Low clouds.15 mph87%29.86 "HgN/A
4:30 PM36 °FLow clouds.15 mph87%29.86 "HgN/A
4:00 PM36 °FOvercast.13 mph87%29.89 "HgN/A
Weather by CustomWeather, © 2016

See weather overviewHow to use our weather pages